Regional Weather Roundup
Issued by NWS

Home | Current Version | Previous Version | Graphics & Text | Print | Product List | Glossary Off
Versions: 1 2 3 4 5 6 7 8 9 10 11 12 13 14 15 16 17 18 19 20 21 22 23 24 25 26 27 28 29 30 31 32 33 34 35 36 37 38 39 40 41 42 43 44 45 46 47 48 49 50

413
ASUS43 KTOP 172259
RWRKS

WEATHER ROUNDUP FOR KANSAS
NATIONAL WEATHER SERVICE GOODLAND KS
500 PM CST SAT FEB 17 2018

NOTE:  "FAIR" INDICATES FEW OR NO CLOUDS BELOW 12,000 FEET WITH NO
SIGNIFICANT WEATHER AND/OR OBSTRUCTIONS TO VISIBILITY.

KSZ001>006-013>018-027>032-041>047-180000-
NORTHWEST KANSAS

CITY           SKY/WX    TMP DP  RH WIND       PRES   REMARKS
GOODLAND       SUNNY     51  11  20 SE5       30.03F
HAYS           SUNNY     55  13  18 N5        30.11R
HILL CITY      SUNNY     54  11  18 NW9       30.09F
RUSSELL        SUNNY     58  11  15 NW9       30.10R
$$

KSZ061>065-074>080-084>089-180000-
SOUTHWEST KANSAS

CITY           SKY/WX    TMP DP  RH WIND       PRES   REMARKS
DODGE CITY     SUNNY     56  11  16 NE8       30.12R
GARDEN CITY    SUNNY     55   6  14 NE5       30.11R
GREAT BEND     SUNNY     57   9  14 N10       30.12R
LIBERAL        SUNNY     57   9  14 SE5       30.14S
$$

KSZ066>073-081>083-090>101-180000-
SOUTHEAST KANSAS

CITY           SKY/WX    TMP DP  RH WIND       PRES   REMARKS
CHANUTE        SUNNY     58  17  20 N7        30.13R
COFFEYVILLE    SUNNY     60  22  23 N12       30.13R
HUTCHINSON     SUNNY     58  11  15 N8        30.12S
MEDICINE LODGE   N/A     59  12  15 N9        30.13R
NEWTON         SUNNY     55  13  18 N12       30.13S
PARSONS        SUNNY     58  21  24 N9        30.14R
WICHITA INTL   SUNNY     58  10  15 NE12      30.12S
WICHITA JABRA  SUNNY     56  10  16 N9        30.12S
WICHITA MCCONL SUNNY     58   9  14 N13       30.12S
WINFIELD       SUNNY     58  11  15 N13       30.14R
$$

KSZ007>012-019>026-033>040-048>060-102>105-180000-
NORTHEAST KANSAS

CITY           SKY/WX    TMP DP  RH WIND       PRES   REMARKS
CONCORDIA      SUNNY     54  14  20 W12       30.10R
EMPORIA        SUNNY     56  16  20 NW12      30.12R
LAWRENCE       SUNNY     54  19  25 W9        30.12R
MANHATTAN      SUNNY     57  14  18 NW6       30.11R
OLATHE IND     SUNNY     52  19  27 N8        30.12R
OLATHE EXE     CLEAR     52  18  26 NW9       30.11R
SALINA         SUNNY     59  14  17 NW7       30.12S
TOPEKA BILLARD SUNNY     55  17  22 NW8       30.11R
TOPEKA FORBES  SUNNY     55  18  23 NW7       30.11S
$$




USA.gov is the U.S. government's official web portal to all federal, state and local government web resources and services.